Left ArrowRight Arrow

Hourly Observations for June 16, 2024

Temp ( °F °C ) Dew Point ( °F °C ) Humidity (%) Winds ( mph kmh ) Pressure ( in mb ) Visibility ( mi km ) Precip ( " mm )
12:53 am 00:53 Clear 63 17.2 26 -3.3 24 24 W 12 19 29.60 1002 10 16 0.00 0.00
1:53 am 01:53 Clear 63 17.2 26 -3.3 24 24 WNW 10 17 29.61 1003 10 16 0.00 0.00
2:53 am 02:53 Clear 60 15.6 33 0.6 36 36 WNW 10 17 29.62 1003 10 16 0.00 0.00
3:53 am 03:53 Clear 56 13.3 33 0.6 42 42 ESE 6 9 29.64 1004 10 16 0.00 0.00
4:53 am 04:53 Clear 55 12.8 33 0.6 43 43 Calm 29.67 1005 10 16 0.00 0.00
5:53 am 05:53 Sunny 55 12.8 33 0.6 43 43 VRB 7 11 29.70 1006 10 16 0.00 0.00
6:53 am 06:53 Sunny 54 12.2 33 0.6 45 45 ESE 12 19 29.69 1006 10 16 0.00 0.00
7:53 am 07:53 Sunny 63 17.2 36 2.2 36 36 E 9 15 29.65 1004 10 16 0.00 0.00
8:53 am 08:53 Sunny 69 20.6 34 1.1 27 27 VRB 5 7 29.64 1004 10 16 0.00 0.00
9:53 am 09:53 Sunny 69 20.6 38 3.3 32 32 N 14 22 29.64 1004 10 16 0.00 0.00
10:53 am 10:53 Sunny 70 21.1 36 2.2 29 29 VRB 6 9 29.64 1004 10 16 0.00 0.00
11:53 am 11:53 Mostly Cloudy 70 21.1 36 2.2 29 29 NNE 8 13 29.62 1003 10 16 0.00 0.00
12:53 pm 12:53 Mostly Cloudy 72 22.2 31 -0.6 22 22 NNW 8 13 29.62 1003 10 16 0.00 0.00
1:53 pm 13:53 Mostly Sunny 72 22.2 30 -1.1 21 21 NNW 6 9 29.60 1003 10 16 0.00 0.00
2:53 pm 14:53 Sunny 74 23.3 26 -3.3 17 17 WSW 10 17 29.60 1002 10 16 0.00 0.00
3:53 pm 15:53 Sunny 79 26.1 28 -2.2 15 15 SSW 17 28 29.59 1002 10 16 0.00 0.00
4:53 pm 16:53 Sunny 79 26.1 26 -3.3 14 14 undefined N/A 29.57 1001 10 16 0.00 0.00
5:53 pm 17:53 Sunny 79 26.1 27 -2.8 15 15 W 10 17 29.57 1001 10 16 0.00 0.00
6:53 pm 18:53 Sunny 77 25 28 -2.2 16 16 undefined N/A 29.56 1001 10 16 0.00 0.00
7:53 pm 19:53 Sunny 73 22.8 30 -1.1 20 20 W 7 11 29.54 1000 10 16 0.00 0.00
8:53 pm 20:53 Sunny 67 19.4 32 0 27 27 WSW 5 7 29.53 1000 10 16 0.00 0.00
9:53 pm 21:53 Clear 61 16.1 33 0.6 35 35 S 7 11 29.57 1001 10 16 0.00 0.00
10:53 pm 22:53 Clear 61 16.1 31 -0.6 32 32 VRB 3 6 29.54 1000 10 16 0.00 0.00
11:53 pm 23:53 Clear 60 15.6 31 -0.6 33 33 WNW 9 15 29.54 1000 10 16 0.00 0.00

Powered by Vaisala Xweather